Preview of NWS' New Version of Forecast
This preview is not operational and should not be used for support decisions.

Regional Weather Roundup (RWR)

Issued by National Weather Service (NWS)

                            
000
ASUS43 KLSX 221007
RWRMO 

WEATHER SUMMARY FOR MISSOURI
NATIONAL WEATHER SERVICE SPRINGFIELD MO
500 AM CDT MON APR 22 2019

NOTE: "FAIR" INDICATES FEW OR NO CLOUDS BELOW 12,000 FEET WITH NO
       SIGNIFICANT WEATHER AND/OR OBSTRUCTIONS TO VISIBILITY.
       CURRENT SKY AND/OR WEATHER CONDITIONS ARE NOT AVAILABLE FOR
       CHILLICOTHE AND FARMINGTON.

MOZ001>031-035>038-043-044-053-054-221100-
...NORTHERN AND WESTERN MISSOURI...
  
CITY           SKY/WX    TMP DP  RH WIND       PRES   REMARKS
KANSAS CTY INT TSTM      63  54  72 S16       29.87S                  
KANSAS C DTWN  CLOUDY    69  52  54 CALM      29.86F                  
LEE'S SUMMIT   CLOUDY    63  54  72 S9        29.90F                  
ST JOSEPH      CLOUDY    63  56  78 CALM      29.81F                  
CHILLICOTHE      N/A     68  50  52 S10       29.92F                  
KIRKSVILLE     CLOUDY    68  51  54 S13       29.95S                  
     
$$
MOZ066>068-077>081-088>096-101>105-221100-
...SOUTHWEST MISSOURI...
  
CITY           SKY/WX    TMP DP  RH WIND       PRES   REMARKS
SPRINGFIELD    MOCLDY    64  49  57 S13       29.96F                  
JOPLIN         CLEAR     66  52  60 S17G28    29.92S                  
BRANSON        CLOUDY    63  48  59 S8        30.01S                  
               
$$
MOZ032>034-039>042-045>050-055>058-069>072-221100-
...CENTRAL MISSOURI...  
  
CITY           SKY/WX    TMP DP  RH WIND       PRES   REMARKS
COLUMBIA       CLOUDY    65  50  58 S9        29.99R                  
JEFFERSON CITY CLOUDY    68  50  52 SE6       29.99R                  
ROLLA          CLOUDY    63  48  58 S8        30.02R                  
SEDALIA        CLOUDY    66  51  58 SW10      29.98R                  
WHITEMAN AFB   MOCLDY    68  51  55 S12       29.92R                  
WARRENSBURG    CLOUDY    66  50  55 S12       29.95F                  
OSAGE BEACH    MOCLDY    66  51  58 S3        30.01R                  
               
$$
MOZ051-052-059>065-221100-
...EAST CENTRAL MISSOURI...
  
CITY           SKY/WX    TMP DP  RH WIND       PRES   REMARKS
ST LOUIS INTL  CLOUDY    65  47  52 S7        30.03S                  
SPIRIT OF STL  CLOUDY    66  48  52 VRB3      30.01S                  
ST CHARLES     CLOUDY    62  51  67 SE3       30.02S                  
                   
$$
MOZ072>076-082>087-097>100-106>115-221100-
...SOUTH CENTRAL AND SOUTHEAST MISSOURI...
  
CITY           SKY/WX    TMP DP  RH WIND       PRES   REMARKS
CAPE GIRARDEAU FAIR      53  46  77 CALM      30.08S                  
FARMINGTON     CLOUDY    61  49  64 S12       30.05F                  
POPLAR BLUFF   FAIR      54  53  97 CALM      30.08R                  
WEST PLAINS    CLOUDY    60  50  69 S8        30.05S                  
                                       
$$